Theta_e
317 310 311 308 299 296 293 295 297 297 298 301 306 304 306 307 304 299 327 334 336 341 346 346 347 347 345 343 344 344 344 345 345 344 342 340 338 338 339 341 343 343 341 339 337 337 339 339 338
312 311 309 302 296 291 292 295 295 298 303 305 305 308 308 306 317 323 329 336 340 343 345 347 344 346 345 343 344 344 344 344 343 344 343 339 338 337 338 338 342 342 338 339 337 336 336 336 336
311 307 304 297 291 292 292 294 297 300 305 303 305 309 309 309 319 327 333 338 342 343 345 344 344 345 345 344 344 343 343 343 342 345 342 339 337 337 337 336 338 340 338 337 337 335 335 335 336
307 303 299 295 293 295 295 296 298 299 301 302 307 305 311 318 326 330 337 340 340 342 344 343 345 346 345 344 344 343 343 343 344 344 341 338 336 335 336 335 335 340 339 340 338 338 337 337 336
303 299 294 292 294 295 295 299 298 299 300 303 304 303 309 320 328 335 338 339 339 341 343 344 343 345 345 344 343 343 343 343 344 345 342 339 336 335 336 335 335 338 337 338 337 336 336 338 337
300 298 292 290 292 295 298 298 299 299 300 302 305 306 311 323 330 334 338 338 339 339 342 343 337 340 342 342 342 342 343 343 345 344 342 338 335 334 334 335 334 335 335 334 335 334 334 335 335
298 294 291 291 292 295 298 298 297 297 298 301 307 304 309 319 330 334 337 339 339 339 341 342 342 339 336 338 338 340 341 341 343 342 338 336 335 335 335 335 335 332 333 335 334 334 334 333 332
297 296 291 291 291 294 296 298 299 298 298 305 309 301 305 317 331 333 336 335 335 336 340 340 340 341 340 340 332 334 337 337 338 336 332 330 331 331 331 330 332 332 333 333 332 332 332 330 329
300 292 290 292 292 294 295 297 298 300 300 301 307 305 310 324 331 331 331 330 332 334 336 339 339 339 338 337 332 331 331 331 330 329 326 325 328 327 328 328 330 331 331 330 329 329 327 325 324
296 291 292 294 294 294 295 296 298 298 298 299 302 308 320 326 327 326 327 328 329 331 334 337 338 337 336 334 334 334 333 333 331 329 328 326 324 324 327 325 326 327 328 327 325 323 319 317 319
296 293 294 294 295 296 296 295 297 297 296 299 300 305 318 322 325 326 326 328 328 330 333 335 337 338 335 333 332 331 331 330 328 327 325 322 321 324 326 326 324 323 317 319 315 314 315 315 317
293 294 294 295 297 296 295 296 295 296 299 299 300 306 317 319 322 325 326 327 327 329 331 334 336 336 335 333 331 329 328 327 326 324 323 321 321 321 322 322 321 319 315 312 312 312 311 312 312
291 292 293 295 295 293 295 294 295 295 298 297 300 308 315 320 323 327 328 329 328 328 330 332 335 336 335 332 331 329 326 325 324 323 322 321 320 319 320 319 317 314 312 311 310 310 310 309 308
293 293 292 294 294 294 292 291 293 293 295 295 299 303 310 317 320 320 323 326 326 328 329 331 333 334 335 333 331 329 327 324 323 322 321 320 319 318 318 316 314 311 311 310 310 309 308 306 306
293 291 291 292 293 293 294 291 292 293 294 294 295 297 304 311 315 319 323 324 327 329 330 330 332 333 333 333 332 331 329 324 322 321 321 320 318 317 316 315 312 310 308 306 305 304 303 303 302
290 289 286 289 293 293 291 287 290 293 292 293 293 293 294 300 311 315 317 321 323 328 328 331 331 332 332 333 332 331 329 326 322 320 321 319 318 317 315 314 312 307 305 304 304 303 301 299 299
287 283 285 287 292 292 290 288 291 294 293 293 294 294 294 294 296 301 313 317 320 325 328 329 331 331 331 332 331 331 329 327 325 321 320 320 319 317 315 313 310 307 303 302 301 300 299 298 295
284 283 284 284 288 289 288 289 292 293 293 294 294 294 294 294 297 298 298 308 317 320 326 329 330 332 331 331 330 330 329 329 327 322 321 320 319 318 316 314 308 305 301 300 300 298 299 297 296
287 285 284 285 289 288 288 288 291 292 292 293 293 294 295 295 297 298 298 298 307 316 320 325 327 330 330 329 327 328 327 328 326 324 322 320 320 319 317 314 308 304 301 300 298 296 293 293 291
286 285 284 286 289 289 287 288 290 291 292 294 294 294 293 294 294 296 296 296 297 306 316 320 325 328 329 330 330 329 328 329 328 326 323 321 320 319 317 314 309 306 303 298 297 295 293 290 293
284 284 284 285 286 285 284 284 285 287 289 291 292 292 292 292 293 294 294 294 295 295 306 317 321 326 329 331 330 326 324 323 326 325 323 322 321 320 318 316 312 307 304 300 297 297 297 291 294
283 287 286 286 284 281 284 278 283 286 288 289 290 290 291 293 295 296 296 297 297 296 296 310 318 322 326 329 329 326 325 323 325 326 325 323 323 321 320 318 314 311 307 303 300 298 298 297 294
285 288 287 285 283 282 281 280 282 284 287 288 289 291 291 292 294 294 295 297 298 302 298 297 309 318 321 326 328 327 325 326 325 325 324 323 322 323 321 319 316 313 309 306 303 299 298 298 297
289 286 285 283 281 277 280 281 279 283 285 286 288 292 293 293 294 294 295 296 297 300 306 307 307 312 317 322 326 327 325 324 320 322 322 322 321 321 320 319 317 314 310 308 303 302 299 298 301
285 284 278 277 276 276 280 279 281 286 288 288 289 293 293 293 293 293 294 295 296 297 300 307 310 310 315 319 323 323 324 323 320 320 321 317 314 309 317 318 316 314 312 311 307 303 300 299 299
284 284 279 273 274 276 280 279 283 287 290 291 293 293 293 293 293 293 294 295 295 296 298 300 304 309 312 314 315 316 317 317 317 318 319 319 317 316 316 314 316 315 314 312 308 305 302 300 298
285 282 284 278 269 274 278 282 286 289 291 291 292 292 291 292 293 293 293 294 295 296 296 298 299 300 304 309 311 312 312 311 311 311 313 314 313 309 310 310 310 307 307 308 306 304 300 300 298
286 288 281 279 270 270 275 278 280 286 288 290 290 291 291 291 291 292 292 292 293 294 295 297 298 298 299 301 303 305 307 307 307 307 307 306 305 303 302 303 303 303 302 303 303 301 299 298 297
284 283 283 283 280 274 271 277 283 287 289 289 290 290 290 290 291 291 291 292 292 293 294 294 295 296 297 298 299 300 301 301 303 305 304 303 300 302 300 300 299 298 298 298 299 299 297 297 296
285 285 285 281 277 277 277 278 287 290 291 292 290 289 290 290 290 290 291 291 291 291 292 292 293 294 295 296 297 297 298 298 298 298 298 297 298 296 295 295 295 296 295 295 296 296 296 295 294
Wind_Speed
3 4 3 5 5 5 0 1 1 3 3 2 6 5 6 3 4 2 3 7 11 14 11 10 13 13 12 11 11 11 11 12 14 17 17 17 16 16 16 15 15 17 19 20 19 19 19 18 18
2 3 5 3 6 3 3 2 6 4 3 7 5 4 2 2 0 1 6 6 14 13 11 10 12 13 13 12 11 10 10 12 13 16 18 15 16 15 15 16 15 17 18 18 18 18 19 19 18
4 4 4 5 3 4 3 4 5 2 5 3 4 2 4 3 1 8 1 12 14 13 11 11 12 13 13 12 11 10 10 11 11 15 17 17 16 15 14 16 13 16 18 18 18 18 18 18 20
4 4 5 5 3 3 3 3 4 6 2 1 3 4 1 2 5 4 10 13 14 12 11 12 12 13 13 11 11 11 10 11 10 15 17 16 15 15 13 15 14 15 18 16 19 18 17 18 19
4 2 5 4 1 2 3 3 7 4 3 2 2 4 1 1 2 9 12 12 14 12 11 11 12 13 12 12 11 10 10 10 8 16 15 16 15 14 14 15 13 15 17 18 17 17 16 18 20
4 3 5 2 2 1 1 5 6 3 3 2 2 6 3 0 6 10 10 11 12 13 11 10 11 11 11 11 10 9 9 9 12 14 14 16 14 14 13 14 13 14 16 15 16 16 15 17 18
6 5 4 4 2 0 5 6 5 5 4 4 4 5 0 2 5 10 10 10 11 12 11 9 9 10 10 10 9 9 9 9 10 12 13 13 12 12 11 13 12 15 15 16 16 16 17 17 17
5 5 4 2 4 3 5 5 3 5 5 2 2 3 3 4 10 9 9 11 10 11 11 10 9 9 9 8 9 8 9 9 10 10 10 11 10 9 9 10 11 14 14 15 16 16 17 18 17
3 6 3 6 6 3 3 4 1 1 5 2 5 3 1 7 13 9 6 8 8 7 9 9 9 9 9 8 7 8 8 9 10 10 11 9 6 7 8 8 12 13 14 14 14 15 16 16 16
5 5 9 6 5 4 5 4 7 4 2 3 3 2 4 12 15 15 13 11 10 10 9 8 9 10 9 6 8 7 7 6 7 8 8 6 7 6 6 8 10 12 12 14 13 13 13 10 6
2 6 5 5 3 5 7 3 4 6 4 7 8 6 7 11 13 14 14 14 14 12 9 9 10 9 10 8 6 4 4 5 5 8 7 7 6 5 5 5 5 5 8 6 7 7 6 8 6
4 2 4 5 5 4 6 7 4 5 5 2 5 5 9 14 16 17 16 15 14 13 12 11 10 9 9 7 7 7 6 5 5 6 8 7 5 6 6 5 6 6 4 7 6 5 7 8 8
3 3 2 3 6 4 4 3 4 6 8 3 4 5 12 13 13 13 13 13 14 14 13 12 11 10 9 9 7 7 7 6 7 7 8 7 7 7 6 6 5 5 5 6 6 7 6 7 7
3 3 3 3 2 2 2 0 2 2 3 3 5 7 8 11 13 4 7 13 15 15 15 16 13 12 10 9 10 8 8 8 7 6 7 8 6 7 7 6 6 5 5 5 6 6 7 6 6
4 5 1 3 1 2 1 5 7 2 2 3 7 5 6 10 6 13 14 12 14 12 13 16 14 13 12 12 10 9 9 8 7 7 9 9 8 8 8 6 6 5 5 8 7 7 6 6 5
6 6 3 1 3 2 2 8 4 4 2 8 7 5 6 7 12 11 9 11 10 11 14 15 13 14 13 11 9 8 8 8 8 7 8 10 10 10 9 7 7 6 6 6 7 7 6 5 4
7 3 3 5 2 2 2 6 4 2 4 3 4 5 6 7 9 11 12 12 12 14 13 15 17 17 14 11 9 10 11 8 8 8 8 12 11 11 8 7 6 9 6 5 6 5 5 6 5
6 4 1 3 1 1 2 10 9 6 4 8 8 8 8 8 15 7 10 11 12 13 14 14 13 17 16 11 8 8 7 8 7 8 8 12 11 12 9 7 9 8 6 6 5 6 5 4 7
6 5 4 2 1 1 4 8 11 6 6 8 10 10 9 10 4 4 7 7 8 11 14 15 15 17 13 11 10 10 10 9 8 8 12 12 11 14 12 8 9 9 9 9 9 6 6 4 3
5 4 4 0 3 2 4 10 11 6 8 7 8 8 7 8 7 7 7 5 7 10 14 15 17 16 16 12 12 9 10 9 8 9 11 12 13 14 13 12 11 12 9 11 11 9 5 3 9
3 6 4 2 1 3 4 8 7 4 3 5 4 6 4 6 8 7 7 5 4 6 9 12 13 14 15 16 11 4 3 2 7 8 9 12 14 14 14 14 12 13 11 12 14 13 13 7 9
5 7 5 4 3 4 3 6 7 5 10 4 2 6 6 6 5 5 7 6 5 5 5 7 8 11 11 13 12 13 11 10 8 8 8 9 14 15 16 16 15 14 11 14 16 13 14 9 10
6 6 6 3 4 1 3 1 9 3 7 4 3 6 5 6 5 6 7 7 5 6 4 4 5 6 8 11 13 13 13 9 5 6 10 10 11 15 15 16 16 14 12 14 16 14 14 12 9
11 8 8 4 3 2 6 6 6 5 5 3 2 5 5 5 6 6 5 6 6 8 8 5 2 2 5 9 12 13 13 11 5 7 8 7 6 9 12 14 14 14 13 14 14 17 17 15 12
2 7 3 3 2 6 2 2 8 6 4 3 2 4 5 5 6 6 8 8 8 10 9 8 7 5 3 6 10 14 14 10 7 7 7 6 5 3 9 12 13 12 15 15 13 15 15 16 13
7 7 9 9 5 3 2 8 8 2 4 3 4 4 5 7 5 6 7 6 7 8 9 8 7 6 5 2 2 2 4 3 3 5 5 5 6 8 8 8 10 12 12 13 12 10 11 12 11
7 7 5 9 3 4 5 7 7 3 4 3 5 5 4 6 7 5 7 7 7 8 8 7 7 6 6 5 3 2 2 2 3 4 3 3 2 3 5 6 8 5 4 6 7 8 11 10 11
7 10 5 3 5 4 5 5 6 4 7 5 5 7 5 4 6 8 8 8 7 6 6 8 7 7 5 5 4 3 4 3 1 1 3 3 1 1 2 4 4 4 4 5 6 6 5 9 8
4 4 3 6 6 8 3 8 7 8 8 9 7 6 5 7 7 7 6 6 5 6 8 7 8 6 7 5 4 4 3 3 2 2 2 2 2 4 4 3 4 4 4 5 5 6 7 10 10
2 8 8 8 7 1 3 8 2 9 10 7 7 6 4 6 5 5 5 6 8 9 8 8 7 7 5 4 4 5 4 4 2 2 2 3 4 2 2 2 3 4 4 4 6 6 6 9 9
Wind_Direction
348 21 58 43 63 64 253 216 130 139 160 154 120 146 190 151 174 230 322 184 147 145 146 144 131 125 125 123 120 117 119 114 109 107 100 96 96 96 92 87 85 91 84 85 83 83 80 81 80
5 24 40 84 85 74 265 235 180 199 161 121 102 108 125 187 170 54 127 179 151 144 143 140 130 130 129 128 121 119 119 115 115 117 109 103 99 102 98 91 79 91 89 84 88 88 88 84 85
72 34 86 90 109 161 201 209 158 136 154 108 107 25 152 176 133 171 219 149 145 143 143 142 133 133 132 130 121 120 118 116 125 123 113 106 104 102 101 97 91 96 96 92 95 93 92 90 89
60 6 43 83 172 220 199 172 157 122 261 268 116 116 291 264 149 189 147 146 143 143 142 143 137 136 132 131 128 126 125 126 127 121 116 109 104 105 106 103 100 97 96 96 97 92 93 96 96
43 52 67 86 248 265 247 168 148 134 148 173 196 167 187 164 84 136 149 149 145 144 142 145 139 138 136 135 133 131 125 126 124 125 115 110 110 111 110 104 103 90 95 92 93 94 91 92 99
45 98 67 152 228 265 218 171 142 126 141 190 111 139 193 89 130 153 151 149 148 152 145 146 141 139 138 137 134 130 124 124 120 120 121 109 116 118 119 107 105 104 97 99 100 102 92 87 89
118 86 152 141 183 164 182 167 150 154 147 236 163 133 215 221 166 155 145 141 146 157 147 147 148 147 140 140 138 133 128 122 119 113 112 112 114 120 116 115 119 116 109 105 104 101 102 99 94
109 92 112 176 183 209 167 184 118 153 210 70 196 195 199 190 150 135 131 151 158 163 161 155 152 152 150 149 139 133 130 126 108 112 113 111 106 107 107 107 119 115 108 108 107 104 102 98 93
138 68 142 185 155 209 145 171 147 242 124 200 195 163 330 133 136 136 139 163 165 170 173 160 162 158 153 151 146 133 122 113 106 103 107 105 122 121 114 111 121 115 110 109 106 104 102 94 85
90 111 203 187 185 177 183 192 172 128 181 223 192 116 95 150 158 168 176 179 181 175 180 169 168 166 156 153 152 146 137 136 132 132 130 130 132 129 119 108 110 119 104 106 110 106 98 91 95
161 162 184 198 183 147 164 197 173 133 229 219 206 173 149 166 176 182 188 193 189 184 181 180 173 163 163 160 156 153 146 144 142 142 141 138 137 131 123 118 109 108 87 106 103 101 88 98 104
112 111 167 149 142 131 163 128 184 189 218 92 228 169 160 174 188 192 196 193 192 193 189 188 180 169 170 162 167 162 160 160 158 160 154 151 149 145 141 136 132 125 122 120 113 106 109 103 97
100 148 140 79 107 98 130 147 210 246 255 239 94 164 183 182 197 199 199 196 197 197 194 194 185 176 172 166 166 168 170 172 167 166 169 164 161 158 151 147 142 134 136 134 126 124 120 111 101
124 84 97 76 83 99 174 183 121 281 342 229 185 195 215 196 199 165 192 193 200 199 199 196 194 189 181 178 173 172 171 173 170 173 177 174 165 162 161 155 149 143 145 138 133 134 126 112 110
117 91 2 50 21 17 150 290 228 232 333 315 231 229 233 231 183 210 212 204 197 203 192 197 194 190 191 188 182 180 175 166 172 180 178 177 172 169 165 160 157 150 139 128 122 114 111 114 108
75 59 102 297 128 335 108 264 282 13 193 265 268 257 253 252 229 227 214 217 197 194 190 193 195 196 194 192 185 184 182 172 170 174 178 185 180 173 168 168 167 151 147 141 137 134 114 105 97
16 171 195 327 169 116 168 260 269 81 53 299 282 260 251 266 259 238 231 219 208 204 196 193 196 199 196 195 187 187 182 177 175 168 180 185 184 180 172 166 150 154 146 143 147 145 131 143 126
168 165 221 224 149 98 200 261 273 278 289 269 273 264 263 250 251 243 234 223 214 208 206 199 193 200 197 192 188 188 178 182 175 177 186 182 183 182 175 164 154 153 147 148 144 138 136 141 148
119 121 158 241 59 206 239 274 269 281 284 259 252 263 261 258 280 244 259 242 218 213 207 201 191 198 190 192 188 193 192 184 183 185 185 185 185 185 182 172 160 166 170 169 157 135 143 148 147
122 128 207 360 39 165 356 284 273 256 247 246 264 259 282 288 302 303 296 264 222 218 213 208 204 194 197 198 201 203 199 201 188 189 188 187 189 187 188 182 180 179 168 167 172 162 154 138 185
121 152 178 170 54 49 329 295 316 312 288 283 299 270 289 288 311 337 343 319 291 243 221 216 208 201 198 202 200 177 138 122 185 190 189 195 190 190 193 193 185 183 180 185 182 180 181 168 194
177 199 140 139 103 234 6 279 299 326 306 274 9 20 1 5 353 358 3 4 354 311 247 219 201 198 200 195 199 198 204 203 210 198 190 194 195 194 197 199 198 196 194 188 191 188 188 175 180
208 124 129 106 107 70 333 51 272 357 275 294 94 351 360 353 360 10 10 358 354 352 354 236 204 185 177 190 203 212 221 224 193 185 187 194 198 204 202 202 203 203 197 205 191 192 198 198 184
152 87 55 58 95 299 212 164 264 204 218 172 335 354 18 15 26 26 22 11 12 7 20 32 140 183 173 187 203 214 217 218 180 189 195 200 198 203 206 206 204 204 203 202 196 201 205 203 211
86 101 36 352 356 228 14 142 245 237 234 216 304 19 22 41 52 34 28 24 17 23 18 25 47 55 159 192 212 226 234 227 207 193 198 182 182 197 209 205 211 205 205 205 204 204 207 207 208
194 160 159 190 197 233 77 230 249 103 69 104 122 64 27 52 53 56 37 27 22 24 24 25 33 45 42 59 264 271 249 246 214 209 198 204 203 213 212 212 220 218 212 209 205 210 213 204 210
197 208 155 104 26 62 211 285 294 90 107 124 122 79 60 49 33 57 44 36 26 28 24 30 30 31 29 20 26 343 288 230 234 229 230 237 226 203 195 202 216 210 202 203 183 195 203 211 218
174 152 85 8 135 236 265 267 232 198 181 180 149 131 104 88 54 35 40 31 25 32 24 32 30 25 20 34 31 7 347 347 325 193 216 221 216 159 212 214 223 211 216 203 185 203 192 202 208
139 176 79 122 157 171 209 251 225 181 166 166 150 118 111 73 57 40 33 30 33 42 37 36 33 31 23 9 8 34 27 7 342 298 288 258 218 217 220 220 218 216 218 215 203 206 191 207 212
199 189 159 171 214 232 146 260 320 151 159 156 132 116 91 78 72 60 45 34 30 32 27 26 20 30 14 19 25 25 18 17 33 49 359 333 294 306 276 247 255 248 236 230 226 221 206 209 216